Theta_e
317 325 322 319 321 324 329 332 333 333 333 333 334 336 340 345 350 365 354 355 357 360 357 349 342 342 342 345 349 343 343 333 330 330 334 337 339 343 344 339 338 338 339 341 343 340 338 330 327
327 325 319 320 318 322 328 331 332 334 333 332 332 334 334 342 341 354 354 355 358 361 357 354 341 342 343 345 346 344 340 331 328 331 333 338 340 343 343 341 339 339 340 340 341 341 337 328 327
327 321 321 320 320 320 324 329 332 332 334 332 331 331 334 340 347 350 354 355 359 360 357 355 341 342 344 346 345 345 334 330 328 329 332 337 341 343 345 345 343 341 338 339 338 334 330 327 328
323 321 321 321 322 322 322 324 328 331 332 333 332 332 333 353 353 352 353 355 360 359 356 355 340 342 345 345 346 344 332 330 329 329 333 336 341 345 346 345 345 341 336 331 329 327 327 328 329
321 322 322 322 321 322 324 324 324 326 329 333 332 332 334 349 349 355 354 354 359 359 356 355 340 341 345 346 346 341 334 333 329 328 333 335 339 342 343 341 339 340 340 338 334 332 327 328 329
321 321 323 324 324 323 324 324 323 323 324 328 332 333 334 348 347 352 354 356 358 358 357 354 341 343 345 345 346 341 338 337 331 328 333 335 338 340 340 338 338 338 338 336 334 331 327 327 328
323 322 321 322 323 325 325 325 324 323 322 324 329 330 332 343 349 353 355 357 357 356 357 351 349 344 344 345 345 343 342 341 334 330 333 336 339 339 338 339 337 337 337 333 328 327 326 330 332
320 322 322 322 322 323 325 325 325 323 323 324 327 327 329 344 353 354 356 358 357 357 354 349 347 347 348 351 344 343 343 341 335 331 334 337 339 339 338 335 336 335 330 328 327 326 327 333 334
319 320 321 321 322 323 324 324 325 323 322 323 324 326 328 346 348 351 356 357 357 356 352 348 345 343 341 343 347 342 342 339 333 332 334 338 341 341 340 341 339 330 330 328 327 326 328 331 331
316 319 320 321 321 322 322 324 324 322 321 321 323 323 323 327 346 350 355 357 357 355 352 348 344 342 341 342 346 343 343 341 337 339 341 339 339 340 340 343 337 331 332 332 331 332 331 326 335
314 317 317 318 319 319 320 322 323 322 322 322 321 323 323 323 340 346 354 356 357 355 353 349 346 343 342 342 339 340 338 337 338 340 341 337 342 343 340 343 338 341 332 339 331 332 334 338 340
313 313 315 316 316 318 320 322 323 322 322 323 323 322 323 323 328 341 346 354 357 356 354 350 347 345 344 344 339 339 337 337 339 340 340 343 345 345 339 340 336 339 337 337 339 337 342 344 344
314 314 313 313 314 315 318 321 321 321 322 323 322 322 323 324 324 339 342 345 358 357 355 352 349 347 347 346 342 343 340 339 340 341 342 344 343 344 341 340 338 339 337 338 339 340 345 346 345
315 314 314 314 314 314 314 318 319 320 321 322 323 323 322 323 324 327 344 346 354 358 356 353 352 351 349 348 346 346 346 345 345 344 344 344 341 342 341 341 340 337 337 339 342 342 345 346 347
316 316 315 314 314 314 314 314 315 317 319 321 322 323 323 324 324 325 329 347 353 358 357 355 354 353 351 350 348 349 349 348 346 346 346 344 343 343 340 338 337 337 338 344 345 347 346 347 349
315 315 315 314 314 314 314 314 315 315 316 318 319 322 323 323 323 324 324 338 353 360 357 357 356 353 353 353 351 350 349 348 347 347 348 347 346 345 342 337 337 335 342 343 342 345 347 348 347
316 316 315 314 313 313 315 315 315 315 316 316 318 319 321 323 324 323 324 332 350 357 357 355 354 355 355 354 352 351 350 348 347 346 348 349 347 343 340 336 336 341 342 343 350 350 349 347 342
317 316 315 315 314 314 314 314 315 315 316 317 317 318 320 321 324 323 324 325 341 359 357 355 352 356 354 355 353 352 353 349 346 346 346 351 347 342 341 338 344 345 346 347 347 347 345 341 338
318 318 317 315 314 315 317 314 315 316 316 317 317 319 320 322 323 322 322 323 338 359 356 355 354 355 354 355 354 351 350 348 345 346 349 349 344 342 342 340 349 348 347 346 347 345 341 337 334
317 318 318 317 316 316 317 316 316 315 316 317 318 320 321 322 324 324 323 324 346 358 357 356 355 355 355 355 352 348 347 345 345 347 347 346 344 344 342 349 347 344 342 340 338 337 338 337 334
318 319 318 318 318 317 318 319 318 316 316 315 317 319 320 322 324 325 325 332 354 358 357 357 356 357 355 351 351 348 347 346 346 347 346 346 347 348 347 347 344 340 336 332 330 330 330 333 336
320 317 318 320 321 320 317 321 319 318 317 316 316 318 320 321 324 325 326 339 357 357 357 357 357 355 352 352 349 348 347 346 347 347 349 349 347 347 345 343 338 335 337 335 331 331 330 331 333
321 319 320 320 321 320 321 320 319 319 318 317 316 316 318 321 323 325 326 345 356 355 357 356 355 352 353 351 349 348 348 347 345 346 346 345 344 342 341 338 336 334 334 331 330 328 327 326 324
318 320 320 320 320 328 322 320 319 318 318 317 317 317 317 319 322 325 328 346 356 355 355 354 352 353 352 352 350 351 344 342 343 344 344 340 340 339 338 336 333 333 333 331 329 325 324 324 324
318 322 324 326 330 326 318 320 320 318 318 317 317 317 317 318 321 325 327 355 358 354 355 354 355 353 352 353 352 345 345 344 345 344 338 337 336 336 332 333 332 332 329 327 325 324 324 324 323
321 323 323 324 328 322 318 319 321 320 318 317 317 318 318 318 322 325 327 357 356 355 357 355 354 352 353 352 348 346 345 346 344 338 338 336 334 333 332 332 330 325 324 323 323 323 322 322 321
321 324 320 324 325 324 320 319 320 317 317 317 316 318 319 318 324 325 327 352 353 355 355 355 353 353 352 348 348 346 348 345 340 338 337 334 331 331 331 327 324 323 323 323 323 322 322 320 320
320 320 324 324 325 324 320 317 316 317 317 317 317 316 319 320 322 326 327 336 353 354 354 353 353 353 350 350 347 348 345 341 339 338 333 334 332 329 327 324 322 321 321 321 320 320 320 320 320
322 321 320 321 323 323 318 315 317 320 321 318 317 317 321 321 323 326 341 337 351 352 352 352 351 351 349 346 344 341 341 338 336 334 334 332 330 327 323 322 322 321 320 320 320 320 320 321 321
318 321 320 325 320 319 318 321 317 317 318 320 318 319 322 322 325 334 351 339 350 350 351 350 349 344 342 342 340 338 337 334 333 332 330 329 326 323 322 321 319 319 319 320 319 319 320 320 320
Wind_Speed
8 8 10 10 8 9 20 22 21 19 11 7 10 8 10 10 7 4 11 9 17 26 28 29 26 25 25 27 28 28 26 25 25 25 26 26 25 22 21 20 20 18 17 15 12 9 7 7 7
11 9 11 7 9 16 18 22 23 17 8 1 6 8 13 10 4 13 12 14 23 27 30 26 27 25 25 27 29 28 26 26 25 25 26 26 25 22 21 19 18 16 15 13 12 9 7 6 6
7 12 9 7 17 19 20 22 19 17 13 6 12 8 7 3 8 5 12 20 25 27 29 27 29 26 26 29 30 29 27 26 25 25 27 26 25 23 20 17 15 14 13 11 9 7 6 6 6
9 9 8 14 23 23 27 25 27 6 10 11 14 7 4 9 1 3 16 21 25 25 27 28 31 28 28 30 31 29 27 26 25 25 26 25 24 22 18 15 13 11 10 9 7 7 6 5 4
17 9 14 19 27 27 23 17 24 9 16 17 15 14 5 11 5 8 16 21 24 25 26 26 32 29 31 31 30 28 27 25 24 24 25 24 23 20 17 13 11 10 8 7 6 5 5 4 4
9 10 17 21 27 26 24 25 16 21 13 19 21 17 10 16 9 12 14 20 22 25 27 26 32 31 30 30 30 28 27 24 23 24 24 23 21 18 15 12 10 8 7 6 5 5 5 4 4
18 16 23 27 26 25 25 21 18 19 18 20 12 14 16 9 11 12 15 18 22 25 25 27 26 28 30 29 30 28 26 24 22 23 23 22 19 17 14 11 8 7 6 5 5 6 5 5 5
15 17 29 27 24 29 23 20 18 19 22 19 13 13 10 12 13 11 16 20 23 23 25 27 27 26 23 22 27 26 25 24 22 22 22 21 18 14 11 9 8 6 6 6 6 6 6 6 5
17 17 22 30 30 21 20 25 13 11 19 22 22 13 7 9 6 12 17 21 24 24 27 28 28 27 26 21 21 23 23 22 21 21 21 19 12 11 9 8 8 7 6 6 6 7 7 6 4
18 17 28 26 23 22 25 23 24 11 21 20 22 21 22 9 10 11 15 20 25 26 27 29 27 27 25 22 20 19 18 17 18 18 19 15 12 11 10 9 8 7 7 7 6 6 4 5 8
19 22 24 27 23 23 26 25 23 17 22 18 18 20 22 13 14 13 16 20 25 26 27 30 28 29 26 23 22 21 18 18 19 18 18 15 13 11 11 7 8 7 7 6 6 6 6 7 5
18 21 24 24 25 28 22 22 23 21 19 19 11 18 18 19 13 16 17 20 26 29 28 29 29 27 26 24 24 21 20 19 19 18 18 12 12 10 12 10 10 9 10 8 7 8 2 3 4
15 16 19 20 21 26 24 21 21 25 22 16 22 15 17 7 12 15 19 19 22 28 28 29 28 27 23 24 23 22 21 19 18 18 19 15 14 12 12 9 9 9 10 8 8 6 4 6 5
16 17 16 15 18 22 24 27 22 28 23 20 22 21 16 15 16 17 19 20 18 25 28 29 30 27 25 23 22 21 19 18 17 17 17 14 13 14 11 10 10 9 8 9 7 8 7 7 3
12 18 20 20 21 22 23 27 32 30 27 24 21 24 23 21 20 18 20 22 20 24 33 27 31 30 27 23 21 20 19 18 17 16 16 15 13 12 11 11 11 10 9 6 6 5 8 7 3
18 19 19 19 24 22 20 27 29 29 29 31 27 22 20 24 24 24 22 23 20 20 34 26 26 32 27 24 24 21 19 18 17 16 14 15 13 10 10 9 9 9 8 8 11 9 5 5 1
17 17 20 22 21 15 16 25 24 25 27 31 29 26 24 22 20 26 24 20 24 21 29 31 32 29 29 25 24 20 20 17 16 15 14 14 12 10 9 9 9 7 9 9 0 1 3 3 2
19 18 17 15 16 14 18 22 20 20 25 25 27 29 24 24 23 24 22 24 25 29 31 31 36 27 31 26 23 20 18 16 15 15 13 14 12 11 10 9 5 5 8 4 2 3 5 3 6
21 24 24 22 20 12 18 21 22 17 21 25 25 20 20 21 20 27 30 28 27 32 34 33 35 29 31 27 24 21 20 18 17 15 13 11 12 11 9 7 7 4 8 10 7 5 4 4 9
22 25 26 25 21 20 24 23 21 19 22 22 21 18 18 18 18 19 25 30 30 34 33 32 36 33 30 26 23 21 19 20 17 15 13 12 11 11 10 9 12 14 14 12 9 7 4 5 12
21 24 24 25 24 20 21 26 26 21 25 25 26 23 20 21 21 20 21 27 30 32 35 35 34 33 30 24 22 19 19 18 17 16 14 12 14 14 14 13 15 13 13 12 9 4 4 7 7
25 21 24 17 20 17 18 21 25 26 27 27 28 26 25 25 21 21 22 24 31 32 35 35 33 36 27 26 25 25 24 22 17 19 17 16 16 14 14 13 14 14 9 9 7 2 3 5 3
17 14 16 19 20 19 29 14 25 26 28 28 29 29 29 26 23 23 24 26 31 35 36 37 35 36 30 24 24 25 20 24 23 20 20 16 14 12 10 11 11 10 8 7 6 4 4 3 3
13 15 17 17 14 15 27 21 22 20 24 20 23 30 30 29 27 25 22 32 33 37 39 36 35 33 33 30 27 22 32 29 25 20 16 14 13 11 12 15 12 12 12 10 8 6 7 8 5
16 10 6 7 10 19 15 17 23 17 28 22 19 24 29 29 27 26 26 25 31 41 44 41 38 36 33 30 27 27 27 26 23 22 20 16 15 13 15 13 11 8 8 8 8 7 9 7 5
11 12 6 8 14 18 21 23 21 24 24 17 17 22 25 30 27 28 30 28 32 43 45 44 41 38 34 32 29 26 26 23 21 19 19 18 16 16 14 13 11 11 9 10 8 8 7 5 4
2 10 17 16 20 17 17 5 22 17 15 20 19 19 23 30 28 29 32 20 42 42 40 41 43 38 37 34 31 30 25 25 21 23 20 16 16 15 13 12 12 10 9 9 9 7 4 3 4
12 2 4 4 6 15 10 20 14 19 19 17 16 20 24 29 29 29 23 20 42 43 40 40 40 38 36 34 32 28 28 26 26 23 19 19 18 15 14 13 12 11 9 8 6 5 4 4 4
5 4 9 12 11 10 15 12 11 15 17 13 17 23 26 27 29 26 11 18 26 40 40 39 38 38 36 31 35 34 30 26 25 23 23 20 18 15 14 12 10 9 8 8 7 5 5 5 5
16 19 18 10 13 14 16 19 11 16 17 18 15 23 21 26 28 17 22 19 7 38 35 35 36 32 35 35 34 34 31 28 26 25 23 19 18 15 14 11 9 9 7 7 5 4 5 4 5
Wind_Direction
247 261 249 253 244 231 247 239 248 256 218 253 283 289 251 354 355 45 128 149 148 151 161 165 174 180 178 178 178 173 170 167 163 160 157 156 156 156 151 150 152 151 150 151 150 143 142 146 145
239 232 238 265 241 245 243 236 252 236 243 213 258 250 256 257 42 120 144 151 154 156 162 165 174 180 179 178 177 175 171 167 163 162 161 160 160 157 154 153 155 155 156 157 160 158 149 143 143
239 223 250 228 235 244 254 251 228 237 227 203 243 237 295 322 61 73 112 157 157 160 163 165 174 179 179 178 177 175 172 169 166 166 164 164 163 161 157 155 158 157 157 158 160 155 152 155 155
215 210 252 252 245 234 248 267 278 263 204 215 235 242 204 60 47 100 151 159 159 161 164 172 174 177 179 178 177 176 174 171 169 168 168 167 168 165 162 160 160 160 158 154 153 153 159 159 163
238 247 235 238 243 251 263 250 266 231 262 231 219 227 197 119 117 132 157 164 164 162 165 168 173 178 181 179 178 176 176 173 171 172 172 171 171 171 168 166 160 159 160 163 166 160 163 170 171
223 236 240 240 244 247 243 254 233 268 243 257 238 228 230 114 143 147 162 165 168 163 157 166 175 180 182 181 179 179 177 176 175 176 174 174 173 172 171 167 160 164 167 176 181 178 177 175 183
243 231 244 250 256 253 240 232 227 244 239 245 247 252 239 144 127 154 165 166 168 165 158 166 169 176 183 183 180 181 180 179 177 177 175 175 174 174 172 174 174 175 178 184 186 185 185 183 195
242 251 259 250 251 257 262 249 215 242 246 249 246 226 258 96 135 155 164 167 164 164 164 167 168 168 170 173 181 182 182 181 177 176 175 175 175 176 178 183 185 180 181 184 185 189 192 198 214
240 248 248 248 254 254 262 264 236 216 253 247 246 194 224 101 161 175 167 168 169 168 168 169 169 169 167 168 173 178 184 182 176 173 177 173 172 178 192 187 201 174 173 180 184 194 201 216 239
232 244 248 261 266 266 268 262 255 224 236 247 241 249 243 158 189 198 186 176 175 173 170 172 171 166 165 161 166 161 173 170 166 167 174 174 180 185 188 175 196 178 175 184 191 205 224 243 255
244 246 266 277 277 281 278 282 253 236 243 233 238 227 234 190 193 205 200 193 180 177 172 174 173 168 168 163 161 162 168 168 170 173 176 185 178 182 178 190 184 184 196 208 213 223 226 236 296
250 257 267 278 285 283 288 274 267 268 256 265 246 244 234 206 216 212 209 204 185 178 175 173 173 172 171 161 166 165 166 170 171 180 181 188 179 174 201 191 189 196 196 214 211 220 232 264 253
266 271 274 270 263 270 274 261 264 270 275 267 274 259 244 224 234 212 225 217 200 176 173 176 172 174 171 161 172 169 170 172 176 179 184 185 194 181 195 196 201 201 206 202 217 236 235 233 232
278 286 283 279 281 265 255 259 258 259 262 254 260 261 255 245 231 245 210 226 196 160 175 179 173 174 176 173 175 169 172 174 175 179 185 188 205 184 201 198 211 210 219 223 219 225 233 230 253
279 269 270 257 251 252 261 255 250 255 258 247 235 247 253 255 244 233 236 213 198 174 169 184 173 172 178 174 172 173 172 175 178 181 181 189 196 183 212 211 216 216 219 234 230 256 220 241 229
266 263 267 263 239 236 230 255 250 246 247 250 249 251 256 233 233 233 222 219 188 151 162 174 172 168 177 174 173 178 174 178 182 180 181 190 192 191 206 211 216 221 221 220 236 234 250 220 66
244 254 257 268 231 217 245 259 252 253 257 232 238 238 243 242 234 224 219 220 189 166 169 165 175 172 175 174 176 179 168 184 183 182 181 187 191 192 199 215 212 207 224 234 7 305 291 52 274
277 276 269 254 262 249 242 258 266 251 259 242 230 232 230 235 227 217 216 214 200 161 166 165 178 183 177 175 175 178 165 186 181 183 184 167 190 191 194 203 166 197 241 233 129 183 70 49 353
273 276 278 280 287 258 262 273 277 270 242 269 226 214 233 232 232 221 213 211 199 163 165 168 180 186 174 172 176 173 169 182 179 180 161 171 185 184 188 205 150 131 99 92 89 137 121 66 7
269 267 267 273 261 265 264 258 254 257 266 255 252 237 226 228 232 226 212 208 181 167 164 169 183 176 170 170 177 176 172 173 170 165 164 175 171 170 172 138 135 143 144 144 120 106 119 41 20
268 263 265 272 272 262 276 278 259 246 247 242 251 246 241 236 227 217 209 199 166 167 167 173 180 164 169 171 181 161 160 153 159 144 165 164 164 160 163 163 159 163 160 135 130 103 29 31 25
256 248 261 295 285 269 260 261 259 250 234 232 232 231 233 238 230 221 205 190 167 174 175 173 168 159 168 176 163 165 161 165 149 155 148 148 157 156 153 143 155 155 142 140 155 134 5 341 347
291 284 275 258 257 271 260 260 256 250 235 223 222 221 224 224 226 226 208 177 173 177 175 168 154 156 166 168 163 164 156 153 140 150 157 155 146 141 148 138 135 132 113 126 96 108 109 119 100
252 250 264 273 266 252 248 245 257 247 257 229 227 212 215 216 220 218 218 171 176 184 169 157 161 160 160 159 162 158 149 149 145 158 150 132 131 130 129 130 135 131 130 128 120 133 107 87 71
239 257 235 237 221 242 249 228 241 244 244 247 230 222 207 210 215 208 210 173 178 182 166 162 161 152 159 148 156 156 152 147 150 153 132 141 141 131 124 112 106 112 110 101 109 90 78 70 68
271 218 246 265 245 251 242 233 233 244 253 237 252 227 212 206 209 206 205 182 179 169 162 156 152 154 152 150 156 149 143 145 141 135 144 140 125 128 130 127 123 122 116 110 103 85 83 82 75
355 228 252 258 263 273 269 229 285 262 263 223 238 262 224 199 210 206 208 162 174 163 153 151 152 150 145 152 147 146 147 138 137 139 134 125 127 132 132 120 109 107 103 102 92 86 64 59 57
200 225 233 201 247 255 252 259 255 242 221 233 225 232 244 203 204 208 202 152 201 148 144 150 147 143 147 143 143 141 133 130 133 133 127 134 132 133 123 116 115 111 100 84 76 76 80 60 49
178 217 233 267 252 269 275 261 36 340 325 230 217 227 230 196 202 207 141 133 170 139 141 140 144 140 136 134 126 124 128 128 128 129 131 129 128 124 116 114 110 100 85 76 72 80 83 76 77
226 231 227 245 256 258 260 261 47 291 313 308 222 220 225 195 195 173 110 114 220 129 131 138 134 120 124 124 124 125 124 125 127 126 126 126 120 114 112 110 101 89 83 82 87 79 73 55 50